[[{"header":{"parameterUnit":"m.s-1","parameterCategory":1,"la1":30.2991,"la2":30.254,"lo1":-89.0895,"lo2":-89.0444,"dy":0.0017,"dx":0.0017,"nx":28,"ny":28,"refTime":"2023-08-24T03:00:00:Z","depth":0,"parameterNumber":2,"parameterNumberName":"U-component_of_WINDS"},"data":[0,0,0,0,0,0,0,0,0,0,0,0,0,0,0,0,0,0,0,0,0,0,0,0,0,0,0,0,0,0,0,0,0,0,0,0,0,0,0,0,0,0,0,0,0,0,0,0,0,0,0,0,0,0,0,0,0,0,-1.3906,-1.3906,0,-1.3906,-1.3906,-1.3906,-1.3854,-1.3853,-1.3851,-1.385,-1.385,-1.3851,-1.3852,0,0,0,0,0,0,0,0,0,0,0,0,0,-1.3861,-1.3862,-1.3906,-1.3906,-1.3906,-1.3906,-1.3906,-1.3906,-1.3854,-1.3853,-1.3851,-1.3849,-1.3849,-1.3851,-1.3852,0,0,0,0,0,0,0,0,0,0,0,0,0,-1.3873,-1.3863,-1.3906,-1.388,-1.3878,-1.3906,-1.3906,-1.3906,-1.3855,-1.3853,-1.3851,-1.3849,-1.3849,-1.3851,-1.3853,-1.3906,0,0,-1.3858,-1.3859,0,0,0,0,0,0,0,0,-1.3872,-1.3875,-1.3884,-1.3882,-1.388,-1.3878,-1.389,-1.3906,-1.3855,-1.3864,-1.385,-1.3848,-1.3861,-1.3862,-1.3866,-1.3906,-1.3906,-1.3859,-1.386,-1.3861,-1.3861,0,0,0,0,0,0,0,-1.3872,-1.3874,-1.3906,-1.3884,-1.3882,-1.3869,-1.3868,-1.3893,-1.3874,-1.3863,-1.3859,-1.386,-1.3859,-1.3864,-1.3866,-1.3906,-1.3858,-1.386,-1.3861,-1.3862,-1.3989,-1.3991,0,0,0,0,0,0,-1.3875,-1.3874,-1.3906,-1.3906,-1.3871,-1.3871,-1.3871,-1.3881,-1.3873,-1.387,-1.3861,-1.3857,-1.3862,-1.3864,-1.3866,-1.3928,-1.3861,-1.3862,-1.3863,-1.3987,-1.399,-1.3992,0,0,0,0,0,0,-1.3874,-1.3878,-1.3906,-1.3889,-1.3892,-1.3874,-1.3886,-1.3882,-1.3887,-1.3872,-1.3869,-1.387,-1.3861,-1.3863,-1.3896,-1.3927,-1.3863,-1.3865,-1.3984,-1.3988,-1.3991,-1.4052,0,0,0,0,0,0,-1.3873,-1.3878,-1.3898,-1.389,-1.3893,-1.3937,-1.3888,-1.3883,-1.389,-1.3885,-1.388,-1.3877,-1.3859,-1.3894,-1.3898,-1.3928,-1.3866,-1.3981,-1.3986,-1.399,-1.4047,-1.4057,-1.4065,0,0,0,0,0,-1.3871,-1.3915,-1.3899,-1.3903,-1.3918,-1.3939,-1.3941,-1.392,-1.3893,-1.3913,-1.3904,-1.3877,-1.3923,-1.3897,-1.3902,-1.3933,-1.3979,-1.3985,-1.3989,-1.4043,-1.4055,-1.4065,0,0,0,0,0,0,-1.3926,-1.3913,-1.3896,-1.3938,-1.394,-1.393,-1.3955,-1.3933,-1.3942,-1.3937,-1.391,-1.3909,-1.3947,-1.3943,-1.3915,-1.3985,-1.3946,-1.3953,-1.3986,-1.3997,-1.4006,-1.4006,-1.3868,0,0,0,0,0,-1.3944,-1.3962,-1.395,-1.3988,-1.399,-1.3973,-1.3981,-1.3965,-1.3966,-1.3966,-1.3959,-1.3961,-1.3976,-1.3986,-1.3999,-1.4046,-1.4045,-1.407,-1.4079,-1.4087,-1.4093,-1.4118,-1.4129,-1.4008,-1.4008,-1.4008,0,0,-1.3979,-1.3974,-1.3988,-1.3999,-1.3999,-1.4019,-1.3974,-1.3996,-1.4011,-1.3969,-1.4001,-1.3996,-1.3996,-1.4037,-1.4055,-1.4035,-1.4126,-1.4093,-1.4099,-1.4101,-1.4124,-1.4136,-1.4146,-1.4012,-1.4011,-1.4011,0,0,-1.4054,-1.4052,-1.4085,-1.4085,-1.4085,-1.4073,-1.4081,-1.4075,-1.407,-1.4101,-1.407,-1.4087,-1.4113,-1.4115,-1.4119,-1.4196,-1.4172,-1.42,-1.4248,-1.4273,-1.4283,-1.4291,-1.4319,-1.4329,-1.4206,-1.4206,-1.4206,0,-1.4098,-1.4127,-1.4104,-1.4129,-1.4135,-1.4099,-1.4132,-1.4133,-1.4138,-1.4143,-1.4121,-1.4153,-1.4151,-1.4192,-1.4211,-1.4215,-1.4223,-1.4201,-1.4283,-1.4292,-1.4299,-1.4325,-1.4336,-1.421,-1.4209,-1.4209,-1.4209,0,-1.4182,-1.4202,-1.4229,-1.4234,-1.4243,-1.4272,-1.4253,-1.4265,-1.4248,-1.4239,-1.4271,-1.4267,-1.4278,-1.4287,-1.427,-1.4326,-1.4314,-1.4288,-1.4249,-1.4315,-1.4339,-1.4349,-1.4215,-1.4214,-1.4213,-1.4212,0,0,-1.4292,-1.4284,-1.4294,-1.4297,-1.4294,-1.431,-1.4337,-1.4349,-1.436,-1.4364,-1.4386,-1.4409,-1.4386,-1.4391,-1.4374,-1.4396,-1.4458,-1.4368,-1.4367,-1.4385,-1.4519,-1.4539,-1.4551,-1.4442,-1.4443,-1.4445,-1.452,0,-1.4365,-1.4411,-1.4391,-1.444,-1.4459,-1.4425,-1.4448,-1.445,-1.4442,-1.4457,-1.4447,-1.4464,-1.4432,-1.4435,-1.4455,-1.4446,-1.4484,-1.444,-1.4463,-1.4464,-1.4464,-1.4564,-1.4584,-1.4655,-1.4529,-1.453,-1.4532,0,-1.4456,-1.4465,-1.4516,-1.451,-1.4518,-1.4539,-1.4549,-1.4563,-1.4564,-1.4557,-1.4563,-1.4541,-1.4568,-1.4529,-1.4565,-1.4536,-1.4544,-1.4541,-1.4543,-1.4545,-1.4502,-1.4568,-1.4677,-1.4688,-1.4546,-1.4545,-1.4544,0,-1.4532,-1.4556,-1.459,-1.4593,-1.4587,-1.4604,-1.4602,-1.4601,-1.4609,-1.4617,-1.4623,-1.4634,-1.464,-1.4649,-1.4631,-1.4604,-1.467,-1.463,-1.4665,-1.4666,-1.4681,-1.468,-1.4793,-1.4685,-1.4685,-1.4685,-1.4685,0,-1.4616,-1.4648,-1.4624,-1.4644,-1.468,-1.4657,-1.4692,-1.4687,-1.4686,-1.4706,-1.4676,-1.4695,-1.467,-1.4686,-1.4672,-1.4705,-1.4708,-1.4703,-1.4699,-1.4706,-1.4706,-1.4711,-1.4705,-1.4688,-1.4687,-1.4687,-1.4686,0,-1.4707,-1.4691,-1.4726,-1.4718,-1.4717,-1.4744,-1.4737,-1.4756,-1.4746,-1.4771,-1.4775,-1.4759,-1.4777,-1.476,-1.4776,-1.4767,-1.4811,-1.4799,-1.4811,-1.4808,-1.4844,-1.4841,-1.4964,-1.4979,-1.4862,-1.4863,-1.4864,0,-1.4762,-1.4786,-1.4781,-1.4792,-1.4793,-1.481,-1.4819,-1.4797,-1.4807,-1.481,-1.4829,-1.4844,-1.4855,-1.4885,-1.4875,-1.4888,-1.4877,-1.4919,-1.4878,-1.4885,-1.4878,-1.4877,-1.488,-1.4927,-1.4929,-1.493,-1.4931,0,-1.4861,-1.4852,-1.4866,-1.4877,-1.4889,-1.4896,-1.4902,-1.4912,-1.489,-1.4903,-1.4921,-1.4929,-1.4946,-1.4962,-1.4972,-1.497,-1.4947,-1.4943,-1.4952,-1.496,-1.4966,-1.4964,-1.4834,-1.4941,-1.494,-1.4939,-1.4938,-1.4938,-1.4936,-1.4956,-1.4956,-1.4972,-1.4974,-1.498,-1.4998,-1.499,-1.5005,-1.5017,-1.5003,-1.5025,-1.5026,-1.5036,-1.5038,-1.5055,-1.5037,-1.505,-1.5053,-1.5057,-1.5062,-1.4963,-1.5056,-1.5056,-1.5056,-1.5055,-1.5055,0,-1.5034,-1.5032,-1.5048,-1.5057,-1.507,-1.5047,-1.5052,-1.5064,-1.5084,-1.5087,-1.5098,-1.5119,-1.5134,-1.5126,-1.5139,-1.5154,-1.5144,-1.5158,-1.5157,-1.5157,-1.5077,-1.5068,-1.5166,-1.5166,-1.5166,-1.5166,-1.5166,-1.5166,-1.5087,-1.512,-1.5111,-1.5145,-1.5143,-1.5165,-1.517,-1.5175,-1.5177,-1.5202,-1.5215,-1.5209,-1.5207,-1.522,-1.5233,-1.523,-1.5237,-1.5255,-1.5248,-1.5174,-1.5163,-1.5152,-1.5144,-1.5256,-1.5257,-1.5327,-1.5328,-1.5328]},{"header":{"parameterUnit":"m.s-1","parameterCategory":1,"la1":30.2991,"la2":30.254,"lo1":-89.0895,"lo2":-89.0444,"dy":0.0017,"dx":0.0017,"nx":28,"ny":28,"refTime":"2023-08-24T03:00:00:Z","depth":0,"parameterNumber":3,"parameterNumberName":"V-component_of_WINDS"},"data":[0,0,0,0,0,0,0,0,0,0,0,0,0,0,0,0,0,0,0,0,0,0,0,0,0,0,0,0,0,0,0,0,0,0,0,0,0,0,0,0,0,0,0,0,0,0,0,0,0,0,0,0,0,0,0,0,0,0,-1.1044,-1.1044,0,-1.1039,-1.1039,-1.1039,-1.1014,-1.1014,-1.1013,-1.1013,-1.1007,-1.1008,-1.1008,0,0,0,0,0,0,0,0,0,0,0,0,0,-1.1033,-1.1033,-1.1044,-1.1044,-1.1044,-1.1039,-1.1039,-1.1039,-1.1014,-1.1014,-1.1013,-1.1012,-1.1007,-1.1008,-1.1008,0,0,0,0,0,0,0,0,0,0,0,0,0,-1.1033,-1.1033,-1.1044,-1.1031,-1.103,-1.1039,-1.1039,-1.1039,-1.1015,-1.1014,-1.1013,-1.1012,-1.1007,-1.1008,-1.1008,-1.1029,0,0,-1.101,-1.101,0,0,0,0,0,0,0,0,-1.1033,-1.1034,-1.1033,-1.1032,-1.1031,-1.1026,-1.1033,-1.1036,-1.1015,-1.102,-1.1013,-1.1012,-1.1014,-1.1014,-1.1015,-1.1029,-1.1029,-1.101,-1.1011,-1.1011,-1.1011,0,0,0,0,0,0,0,-1.1033,-1.1034,-1.1042,-1.1033,-1.1032,-1.1025,-1.1025,-1.1033,-1.1022,-1.102,-1.1018,-1.1018,-1.1014,-1.1015,-1.1015,-1.1029,-1.101,-1.1011,-1.1011,-1.1011,-1.1059,-1.106,0,0,0,0,0,0,-1.1035,-1.1034,-1.1042,-1.1042,-1.103,-1.1026,-1.1025,-1.1029,-1.1022,-1.102,-1.1018,-1.1017,-1.1014,-1.1014,-1.1015,-1.1038,-1.1011,-1.1011,-1.1012,-1.1058,-1.1059,-1.106,0,0,0,0,0,0,-1.1035,-1.1036,-1.1042,-1.1037,-1.1038,-1.1028,-1.1031,-1.1029,-1.103,-1.1021,-1.1019,-1.1022,-1.1014,-1.1014,-1.1026,-1.1038,-1.1012,-1.1012,-1.1057,-1.1058,-1.1059,-1.1086,0,0,0,0,0,0,-1.1035,-1.1036,-1.1044,-1.1038,-1.1038,-1.1054,-1.1032,-1.1029,-1.1031,-1.1029,-1.1024,-1.1022,-1.1013,-1.1025,-1.1026,-1.1038,-1.1013,-1.1056,-1.1057,-1.1059,-1.1084,-1.1089,-1.1092,0,0,0,0,0,-1.1034,-1.1052,-1.1045,-1.1046,-1.1048,-1.1054,-1.1055,-1.1044,-1.1032,-1.104,-1.1034,-1.1022,-1.1036,-1.1026,-1.1028,-1.104,-1.1055,-1.1057,-1.1059,-1.1083,-1.1088,-1.1092,0,0,0,0,0,0,-1.1061,-1.1051,-1.1043,-1.1059,-1.1058,-1.105,-1.106,-1.1049,-1.1051,-1.1049,-1.1035,-1.1034,-1.1048,-1.1045,-1.1034,-1.106,-1.1043,-1.1046,-1.1061,-1.1066,-1.107,-1.107,-1.1013,0,0,0,0,0,-1.1068,-1.1074,-1.1066,-1.1081,-1.1081,-1.107,-1.1073,-1.1064,-1.1062,-1.1062,-1.1057,-1.1055,-1.1059,-1.1062,-1.1066,-1.1084,-1.1082,-1.1093,-1.1097,-1.11,-1.1102,-1.1111,-1.1116,-1.1067,-1.1066,-1.1066,0,0,-1.1084,-1.108,-1.1085,-1.1086,-1.1084,-1.109,-1.107,-1.1078,-1.1082,-1.1063,-1.1074,-1.107,-1.1067,-1.1082,-1.1089,-1.108,-1.1115,-1.1102,-1.1105,-1.1106,-1.1114,-1.1118,-1.1122,-1.1068,-1.1068,-1.1067,0,0,-1.1117,-1.1114,-1.1126,-1.1124,-1.1121,-1.1114,-1.1117,-1.1111,-1.1108,-1.1118,-1.1104,-1.1109,-1.1116,-1.1115,-1.1115,-1.1146,-1.1135,-1.1147,-1.1167,-1.1176,-1.118,-1.1183,-1.1194,-1.1198,-1.1149,-1.115,-1.115,0,-1.1137,-1.1146,-1.1134,-1.1142,-1.1143,-1.1125,-1.1137,-1.1136,-1.1135,-1.1135,-1.1126,-1.1134,-1.1132,-1.1146,-1.1153,-1.1154,-1.1157,-1.1148,-1.1181,-1.1184,-1.1187,-1.1197,-1.1201,-1.1151,-1.1151,-1.1151,-1.1151,0,-1.1171,-1.1178,-1.1188,-1.1186,-1.1188,-1.1198,-1.1187,-1.1191,-1.1182,-1.1176,-1.1186,-1.1182,-1.1184,-1.1187,-1.1178,-1.1199,-1.1194,-1.1183,-1.1166,-1.1193,-1.1203,-1.1206,-1.1153,-1.1153,-1.1152,-1.1152,0,0,-1.1221,-1.1211,-1.1215,-1.1214,-1.1209,-1.1214,-1.1223,-1.1224,-1.1228,-1.1227,-1.1234,-1.124,-1.1229,-1.123,-1.1221,-1.1229,-1.1253,-1.1216,-1.1216,-1.1223,-1.1276,-1.1284,-1.1289,-1.1245,-1.1246,-1.1247,-1.1276,0,-1.1252,-1.1267,-1.1255,-1.1272,-1.1278,-1.1261,-1.1269,-1.1266,-1.1261,-1.1264,-1.1258,-1.1263,-1.1248,-1.1248,-1.1255,-1.1249,-1.1263,-1.1246,-1.1252,-1.1252,-1.1253,-1.1294,-1.1303,-1.1331,-1.128,-1.128,-1.1281,0,-1.129,-1.129,-1.1308,-1.1301,-1.1303,-1.131,-1.131,-1.1314,-1.1311,-1.1306,-1.1306,-1.1295,-1.1303,-1.1287,-1.1298,-1.1287,-1.1288,-1.1285,-1.1286,-1.1286,-1.1268,-1.1296,-1.134,-1.1344,-1.1286,-1.1286,-1.1285,0,-1.1324,-1.1329,-1.134,-1.1339,-1.1332,-1.1337,-1.1334,-1.133,-1.1331,-1.1332,-1.1332,-1.1333,-1.1334,-1.1335,-1.1325,-1.1314,-1.1337,-1.132,-1.1333,-1.1334,-1.1339,-1.1339,-1.1385,-1.134,-1.134,-1.134,-1.134,0,-1.136,-1.1371,-1.1355,-1.1362,-1.1374,-1.1361,-1.1373,-1.1368,-1.1365,-1.137,-1.1355,-1.1361,-1.1346,-1.135,-1.1342,-1.1352,-1.1352,-1.1349,-1.1347,-1.135,-1.1351,-1.1351,-1.1349,-1.1341,-1.1341,-1.1341,-1.134,0,-1.14,-1.139,-1.1401,-1.1392,-1.139,-1.14,-1.1392,-1.1398,-1.1391,-1.1398,-1.1399,-1.1388,-1.1392,-1.1381,-1.1383,-1.1378,-1.1393,-1.1387,-1.1394,-1.1392,-1.1406,-1.1405,-1.1454,-1.146,-1.1411,-1.1412,-1.1412,0,-1.1424,-1.1432,-1.1424,-1.1427,-1.1425,-1.1429,-1.143,-1.1417,-1.1419,-1.1415,-1.1421,-1.1424,-1.1425,-1.1432,-1.1424,-1.1425,-1.142,-1.1437,-1.142,-1.1423,-1.142,-1.142,-1.142,-1.144,-1.1441,-1.1441,-1.1442,0,-1.1467,-1.1461,-1.1464,-1.1464,-1.1466,-1.1465,-1.1464,-1.1467,-1.1453,-1.1455,-1.1459,-1.146,-1.1461,-1.1464,-1.1464,-1.146,-1.1449,-1.1447,-1.145,-1.1454,-1.1458,-1.1456,-1.1403,-1.1446,-1.1446,-1.1445,-1.1445,-1.1445,-1.15,-1.1506,-1.1502,-1.1504,-1.1502,-1.1501,-1.1506,-1.1499,-1.1501,-1.1502,-1.1494,-1.1499,-1.1494,-1.1493,-1.149,-1.1494,-1.1486,-1.1491,-1.1492,-1.1494,-1.1496,-1.1457,-1.1494,-1.1494,-1.1494,-1.1494,-1.1493,0,-1.1542,-1.1538,-1.1541,-1.1539,-1.1541,-1.1529,-1.1527,-1.153,-1.1534,-1.1531,-1.1532,-1.1536,-1.1538,-1.153,-1.1531,-1.1536,-1.153,-1.1536,-1.1536,-1.1535,-1.1503,-1.15,-1.1541,-1.1541,-1.1541,-1.1541,-1.1541,-1.1541,-1.1564,-1.1574,-1.1568,-1.1576,-1.1572,-1.1577,-1.1576,-1.1575,-1.1572,-1.1577,-1.1579,-1.1573,-1.1568,-1.1569,-1.157,-1.1567,-1.1569,-1.1577,-1.1572,-1.1542,-1.1538,-1.1533,-1.1531,-1.1577,-1.1577,-1.1604,-1.1605,-1.1605]}]]